Time,TemperatureF,DewpointF,PressureIn,WindDirection,WindDirectionDegrees,WindSpeedMPH,WindSpeedGustMPH,Humidity,HourlyPrecipIn,Conditions,Clouds,dailyrainin,SoftwareType,DateUTC
2013-01-19 00:04:00,18.0,3.0,30.38,SW,223,1.0,5.0,51,0.00,,,0.00,,2013-01-19 05:04:00,
2013-01-19 00:13:00,18.0,3.0,30.38,SW,223,1.0,5.0,51,0.00,,,0.00,,2013-01-19 05:13:00,
2013-01-19 00:23:00,19.0,3.0,30.38,SSW,194,1.0,6.0,50,0.00,,,0.00,,2013-01-19 05:23:00,
2013-01-19 00:33:00,19.0,3.0,30.37,South,189,2.0,4.0,50,0.00,,,0.00,,2013-01-19 05:33:00,
2013-01-19 00:43:00,19.0,3.0,30.37,South,189,2.0,4.0,50,0.00,,,0.00,,2013-01-19 05:43:00,
2013-01-19 00:52:00,19.0,3.0,30.37,South,190,1.0,5.0,50,0.00,,,0.00,,2013-01-19 05:52:00,
2013-01-19 01:03:00,20.0,5.0,30.36,SSW,198,0.0,4.0,51,0.00,,,0.00,,2013-01-19 06:03:00,
2013-01-19 01:12:00,20.0,5.0,30.36,SSW,198,0.0,4.0,51,0.00,,,0.00,,2013-01-19 06:12:00,
2013-01-19 01:23:00,20.0,4.0,30.35,SSW,198,1.0,3.0,50,0.00,,,0.00,,2013-01-19 06:23:00,
2013-01-19 01:33:00,21.0,5.0,30.34,SSW,194,1.0,6.0,50,0.00,,,0.00,,2013-01-19 06:33:00,
2013-01-19 01:43:00,21.0,5.0,30.34,SSW,194,1.0,6.0,50,0.00,,,0.00,,2013-01-19 06:43:00,
2013-01-19 01:52:00,23.0,7.0,30.35,SSW,210,3.0,10.0,50,0.00,,,0.00,,2013-01-19 06:52:00,
2013-01-19 02:02:00,24.0,7.0,30.33,SW,227,4.0,17.0,48,0.00,,,0.00,,2013-01-19 07:02:00,
2013-01-19 02:12:00,24.0,7.0,30.33,SW,227,4.0,17.0,48,0.00,,,0.00,,2013-01-19 07:12:00,
2013-01-19 02:22:00,24.0,8.0,30.33,SSW,192,2.0,11.0,49,0.00,,,0.00,,2013-01-19 07:22:00,
2013-01-19 02:33:00,24.0,8.0,30.32,SSW,213,5.0,11.0,49,0.00,,,0.00,,2013-01-19 07:33:00,
2013-01-19 02:43:00,24.0,8.0,30.32,SSW,213,5.0,11.0,49,0.00,,,0.00,,2013-01-19 07:43:00,
2013-01-19 02:52:00,24.0,9.0,30.32,SW,221,4.0,11.0,51,0.00,,,0.00,,2013-01-19 07:52:00,
2013-01-19 03:02:00,25.0,9.0,30.30,SSE,164,3.0,11.0,51,0.00,,,0.00,,2013-01-19 08:02:00,
2013-01-19 03:12:00,25.0,9.0,30.30,SSE,164,3.0,11.0,51,0.00,,,0.00,,2013-01-19 08:12:00,
2013-01-19 03:22:00,25.0,10.0,30.29,SW,225,7.0,13.0,52,0.00,,,0.00,,2013-01-19 08:22:00,
2013-01-19 03:32:00,25.0,10.0,30.29,SW,232,4.0,13.0,52,0.00,,,0.00,,2013-01-19 08:32:00,
2013-01-19 03:43:00,25.0,10.0,30.29,SW,232,4.0,13.0,52,0.00,,,0.00,,2013-01-19 08:43:00,
2013-01-19 03:52:00,26.0,11.0,30.29,SSW,196,5.0,12.0,53,0.00,,,0.00,,2013-01-19 08:52:00,
2013-01-19 04:02:00,26.0,11.0,30.28,SSW,196,5.0,15.0,53,0.00,,,0.00,,2013-01-19 09:02:00,
2013-01-19 04:12:00,26.0,11.0,30.28,SSW,196,5.0,15.0,53,0.00,,,0.00,,2013-01-19 09:12:00,
2013-01-19 04:23:00,26.0,12.0,30.27,WSW,246,3.0,10.0,54,0.00,,,0.00,,2013-01-19 09:23:00,
2013-01-19 04:33:00,26.0,12.0,30.27,South,187,3.0,9.0,55,0.00,,,0.00,,2013-01-19 09:33:00,
2013-01-19 04:43:00,26.0,12.0,30.27,South,187,3.0,9.0,55,0.00,,,0.00,,2013-01-19 09:43:00,
2013-01-19 04:52:00,26.0,12.0,30.26,South,189,4.0,14.0,55,0.00,,,0.00,,2013-01-19 09:52:00,
2013-01-19 05:02:00,26.0,12.0,30.24,SW,218,3.0,12.0,55,0.00,,,0.00,,2013-01-19 10:02:00,
2013-01-19 05:12:00,26.0,12.0,30.24,SW,218,3.0,12.0,55,0.00,,,0.00,,2013-01-19 10:12:00,
2013-01-19 05:23:00,26.0,12.0,30.24,WSW,243,5.0,10.0,56,0.00,,,0.00,,2013-01-19 10:23:00,
2013-01-19 05:33:00,27.0,14.0,30.23,SW,223,4.0,12.0,57,0.00,,,0.00,,2013-01-19 10:33:00,
2013-01-19 05:43:00,27.0,14.0,30.23,SW,223,4.0,12.0,57,0.00,,,0.00,,2013-01-19 10:43:00,
2013-01-19 05:52:00,27.0,14.0,30.23,SW,229,8.0,15.0,58,0.00,,,0.00,,2013-01-19 10:52:00,
2013-01-19 06:03:00,27.0,15.0,30.22,SW,222,5.0,13.0,59,0.00,,,0.00,,2013-01-19 11:03:00,
2013-01-19 06:12:00,27.0,15.0,30.22,SW,222,5.0,13.0,59,0.00,,,0.00,,2013-01-19 11:12:00,
2013-01-19 06:39:00,29.0,16.0,30.21,SSW,198,4.0,14.0,58,0.00,,,0.00,,2013-01-19 11:39:00,
2013-01-19 07:48:00,29.0,16.0,30.20,SW,221,7.0,16.0,58,0.00,,,0.00,,2013-01-19 12:48:00,
2013-01-19 07:53:00,30.0,17.0,30.19,SSW,205,5.0,16.0,57,0.00,,,0.00,,2013-01-19 12:53:00,
2013-01-19 08:03:00,30.0,17.0,30.19,South,188,6.0,17.0,57,0.00,,,0.00,,2013-01-19 13:03:00,
2013-01-19 08:13:00,30.0,17.0,30.19,South,188,6.0,17.0,57,0.00,,,0.00,,2013-01-19 13:13:00,
2013-01-19 08:22:00,31.0,18.0,30.18,South,189,5.0,16.0,57,0.00,,,0.00,,2013-01-19 13:22:00,
2013-01-19 08:33:00,32.0,19.0,30.18,South,186,7.0,16.0,57,0.00,,,0.00,,2013-01-19 13:33:00,
2013-01-19 08:43:00,32.0,19.0,30.18,South,186,7.0,16.0,57,0.00,,,0.00,,2013-01-19 13:43:00,
2013-01-19 08:53:00,33.0,19.0,30.18,SSW,211,9.0,18.0,56,0.00,,,0.00,,2013-01-19 13:53:00,
2013-01-19 09:03:00,34.0,20.0,30.18,SSW,206,6.0,11.0,55,0.00,,,0.00,,2013-01-19 14:03:00,
2013-01-19 09:12:00,34.0,20.0,30.18,SSW,206,6.0,11.0,55,0.00,,,0.00,,2013-01-19 14:12:00,
2013-01-19 09:23:00,34.0,20.0,30.18,WSW,242,5.0,16.0,57,0.00,,,0.00,,2013-01-19 14:23:00,
2013-01-19 09:34:00,35.0,20.0,30.18,SW,233,7.0,21.0,55,0.00,,,0.00,,2013-01-19 14:34:00,
2013-01-19 09:43:00,35.0,20.0,30.18,SW,233,7.0,21.0,55,0.00,,,0.00,,2013-01-19 14:43:00,
2013-01-19 09:53:00,36.0,21.0,30.18,SSE,147,6.0,19.0,55,0.00,,,0.00,,2013-01-19 14:53:00,
2013-01-19 10:03:00,37.0,22.0,30.17,WSW,251,4.0,20.0,54,0.00,,,0.00,,2013-01-19 15:03:00,
2013-01-19 10:13:00,37.0,22.0,30.17,WSW,251,4.0,20.0,54,0.00,,,0.00,,2013-01-19 15:13:00,
2013-01-19 10:23:00,37.0,22.0,30.16,SSW,200,5.0,18.0,54,0.00,,,0.00,,2013-01-19 15:23:00,
2013-01-19 10:33:00,37.0,21.0,30.16,SSW,206,8.0,16.0,53,0.00,,,0.00,,2013-01-19 15:33:00,
2013-01-19 10:43:00,37.0,21.0,30.16,SSW,206,8.0,16.0,53,0.00,,,0.00,,2013-01-19 15:43:00,
2013-01-19 10:53:00,38.0,22.0,30.16,WSW,257,9.0,16.0,52,0.00,,,0.00,,2013-01-19 15:53:00,
2013-01-19 11:03:00,38.0,21.0,30.15,WSW,248,6.0,14.0,50,0.00,,,0.00,,2013-01-19 16:03:00,
2013-01-19 11:13:00,38.0,21.0,30.15,WSW,248,6.0,14.0,50,0.00,,,0.00,,2013-01-19 16:13:00,
2013-01-19 11:23:00,39.0,21.0,30.14,SW,218,10.0,20.0,49,0.00,,,0.00,,2013-01-19 16:23:00,
2013-01-19 11:33:00,40.0,22.0,30.12,SW,218,8.0,13.0,48,0.00,,,0.00,,2013-01-19 16:33:00,
2013-01-19 11:43:00,40.0,22.0,30.12,SW,218,8.0,13.0,48,0.00,,,0.00,,2013-01-19 16:43:00,
2013-01-19 11:53:00,40.0,21.0,30.11,SSW,197,6.0,19.0,46,0.00,,,0.00,,2013-01-19 16:53:00,
2013-01-19 12:03:00,41.0,21.0,30.09,SW,219,7.0,15.0,45,0.00,,,0.00,,2013-01-19 17:03:00,
2013-01-19 12:22:00,41.0,21.0,30.09,SW,219,7.0,15.0,45,0.00,,,0.00,,2013-01-19 17:22:00,
2013-01-19 12:29:00,41.0,21.0,30.08,WSW,255,8.0,21.0,45,0.00,,,0.00,,2013-01-19 17:29:00,
2013-01-19 12:37:00,41.0,21.0,30.06,SSW,198,9.0,21.0,44,0.00,,,0.00,,2013-01-19 17:37:00,
2013-01-19 12:48:00,41.0,21.0,30.06,SSW,198,9.0,21.0,44,0.00,,,0.00,,2013-01-19 17:48:00,
2013-01-19 12:54:00,41.0,21.0,30.06,SSW,198,9.0,21.0,44,0.00,,,0.00,,2013-01-19 17:54:00,
2013-01-19 13:12:00,42.0,21.0,30.05,WSW,240,6.0,18.0,43,0.00,,,0.00,,2013-01-19 18:12:00,
2013-01-19 13:29:00,43.0,22.0,30.04,South,171,6.0,21.0,43,0.00,,,0.00,,2013-01-19 18:29:00,
2013-01-19 13:37:00,44.0,22.0,30.03,SSW,213,8.0,17.0,41,0.00,,,0.00,,2013-01-19 18:37:00,
2013-01-19 13:45:00,44.0,22.0,30.03,SSW,213,8.0,17.0,41,0.00,,,0.00,,2013-01-19 18:45:00,
2013-01-19 13:55:00,45.0,21.0,30.02,South,175,7.0,15.0,38,0.00,,,0.00,,2013-01-19 18:55:00,
2013-01-19 14:10:00,46.0,23.0,30.02,SW,223,6.0,20.0,40,0.00,,,0.00,,2013-01-19 19:10:00,
2013-01-19 14:20:00,46.0,23.0,30.02,SW,223,6.0,20.0,40,0.00,,,0.00,,2013-01-19 19:20:00,
2013-01-19 14:30:00,46.0,21.0,30.01,SSW,205,11.0,19.0,36,0.00,,,0.00,,2013-01-19 19:30:00,
2013-01-19 14:40:00,46.0,21.0,30.01,SSW,199,10.0,25.0,36,0.00,,,0.00,,2013-01-19 19:40:00,
2013-01-19 14:47:00,46.0,21.0,30.01,SSW,199,10.0,25.0,36,0.00,,,0.00,,2013-01-19 19:47:00,
2013-01-19 14:54:00,46.0,21.0,30.02,SW,217,11.0,22.0,37,0.00,,,0.00,,2013-01-19 19:54:00,
2013-01-19 15:26:00,46.0,22.0,30.01,WSW,257,6.0,16.0,38,0.00,,,0.00,,2013-01-19 20:26:00,
2013-01-19 15:39:00,46.0,22.0,30.01,WSW,257,6.0,16.0,38,0.00,,,0.00,,2013-01-19 20:39:00,
2013-01-19 15:54:00,45.0,21.0,30.01,South,184,10.0,22.0,38,0.00,,,0.00,,2013-01-19 20:54:00,
2013-01-19 16:09:00,45.0,22.0,30.01,SW,214,5.0,16.0,40,0.00,,,0.00,,2013-01-19 21:09:00,
2013-01-19 16:15:00,45.0,22.0,30.01,SW,214,5.0,16.0,40,0.00,,,0.00,,2013-01-19 21:15:00,
2013-01-19 16:28:00,44.0,22.0,30.01,South,175,6.0,18.0,41,0.00,,,0.00,,2013-01-19 21:28:00,
2013-01-19 16:46:00,44.0,22.0,30.01,WSW,244,5.0,17.0,42,0.00,,,0.00,,2013-01-19 21:46:00,
2013-01-19 16:57:00,43.0,23.0,30.01,SW,236,5.0,13.0,44,0.00,,,0.00,,2013-01-19 21:57:00,
2013-01-19 17:10:00,42.0,23.0,30.00,South,182,4.0,7.0,47,0.00,,,0.00,,2013-01-19 22:10:00,
2013-01-19 17:15:00,43.0,23.0,30.00,SW,229,5.0,12.0,44,0.00,,,0.00,,2013-01-19 22:15:00,
2013-01-19 17:28:00,42.0,23.0,30.00,SSW,204,3.0,13.0,46,0.00,,,0.00,,2013-01-19 22:28:00,
2013-01-19 17:35:00,42.0,23.0,30.00,South,182,4.0,7.0,47,0.00,,,0.00,,2013-01-19 22:35:00,
2013-01-19 17:48:00,42.0,23.0,30.00,South,182,4.0,7.0,47,0.00,,,0.00,,2013-01-19 22:48:00,
2013-01-19 17:55:00,42.0,23.0,30.00,South,182,4.0,7.0,47,0.00,,,0.00,,2013-01-19 22:55:00,
2013-01-19 18:35:00,41.0,24.0,30.00,WSW,246,1.0,7.0,50,0.00,,,0.00,,2013-01-19 23:35:00,
2013-01-19 18:47:00,41.0,24.0,30.00,WSW,246,1.0,7.0,50,0.00,,,0.00,,2013-01-19 23:47:00,
2013-01-19 19:00:00,41.0,23.0,29.99,WSW,240,2.0,9.0,49,0.00,,,0.00,,2013-01-20 00:00:00,
2013-01-19 19:09:00,41.0,23.0,29.99,WSW,240,2.0,9.0,49,0.00,,,0.00,,2013-01-20 00:09:00,
2013-01-19 19:15:00,41.0,23.0,29.99,WSW,240,2.0,9.0,49,0.00,,,0.00,,2013-01-20 00:15:00,
2013-01-19 19:25:00,40.0,23.0,29.99,SW,223,2.0,8.0,50,0.00,,,0.00,,2013-01-20 00:25:00,
2013-01-19 19:47:00,40.0,23.0,29.99,SSW,209,4.0,8.0,50,0.00,,,0.00,,2013-01-20 00:47:00,
2013-01-19 19:54:00,40.0,23.0,29.99,SSW,209,1.0,6.0,51,0.00,,,0.00,,2013-01-20 00:54:00,
2013-01-19 20:04:00,39.0,24.0,29.99,SW,223,2.0,9.0,54,0.00,,,0.00,,2013-01-20 01:04:00,
2013-01-19 20:21:00,39.0,24.0,29.99,SW,223,2.0,9.0,54,0.00,,,0.00,,2013-01-20 01:21:00,
2013-01-19 20:27:00,39.0,25.0,29.99,SSW,201,1.0,8.0,57,0.00,,,0.00,,2013-01-20 01:27:00,
2013-01-19 20:38:00,39.0,26.0,29.99,SSW,195,3.0,9.0,59,0.00,,,0.00,,2013-01-20 01:38:00,
2013-01-19 20:59:00,38.0,26.0,29.99,SSW,205,1.0,7.0,61,0.00,,,0.00,,2013-01-20 01:59:00,
2013-01-19 21:09:00,38.0,26.0,29.98,SSW,201,0.0,4.0,62,0.00,,,0.00,,2013-01-20 02:09:00,
2013-01-19 21:15:00,38.0,26.0,29.98,SSW,201,0.0,4.0,62,0.00,,,0.00,,2013-01-20 02:15:00,
2013-01-19 21:27:00,37.0,26.0,29.97,SSW,200,0.0,4.0,65,0.00,,,0.00,,2013-01-20 02:27:00,
2013-01-19 21:45:00,36.0,26.0,29.97,SSW,201,0.0,5.0,67,0.00,,,0.00,,2013-01-20 02:45:00,
2013-01-19 22:09:00,37.0,28.0,29.96,SSW,206,2.0,7.0,71,0.00,,,0.00,,2013-01-20 03:09:00,
2013-01-19 22:15:00,37.0,28.0,29.96,SSW,206,2.0,7.0,71,0.00,,,0.00,,2013-01-20 03:15:00,
2013-01-19 22:25:00,37.0,28.0,29.95,SW,215,1.0,5.0,71,0.00,,,0.00,,2013-01-20 03:25:00,
2013-01-19 22:39:00,37.0,28.0,29.94,SSW,198,0.0,6.0,71,0.00,,,0.00,,2013-01-20 03:39:00,
2013-01-19 22:45:00,37.0,28.0,29.94,SSW,198,0.0,6.0,71,0.00,,,0.00,,2013-01-20 03:45:00,
2013-01-19 22:54:00,37.0,28.0,29.93,SSW,199,1.0,5.0,71,0.00,,,0.00,,2013-01-20 03:54:00,
2013-01-19 23:05:00,38.0,29.0,29.92,South,183,1.0,6.0,70,0.00,,,0.00,,2013-01-20 04:05:00,
2013-01-19 23:15:00,38.0,29.0,29.92,South,183,1.0,6.0,70,0.00,,,0.00,,2013-01-20 04:15:00,
2013-01-19 23:27:00,38.0,29.0,29.91,South,178,1.0,4.0,71,0.00,,,0.00,,2013-01-20 04:27:00,
2013-01-19 23:37:00,37.0,28.0,29.91,South,178,0.0,4.0,71,0.00,,,0.00,,2013-01-20 04:37:00,
2013-01-19 23:44:00,37.0,28.0,29.91,South,178,0.0,4.0,71,0.00,,,0.00,,2013-01-20 04:44:00,
2013-01-19 23:54:00,37.0,29.0,29.89,South,178,0.0,3.0,72,0.00,,,0.00,,2013-01-20 04:54:00,